Regional Weather Roundup
Issued by NWS

Home | Current Version | Previous Version | Text Only | Print | Product List | Glossary On
Versions: 1 2 3 4 5 6 7 8 9 10 11 12 13 14 15 16 17 18 19 20 21 22 23 24 25 26 27
000
ASUS42 KKEY 230210
RWRKEY

FLORIDA REGIONAL WEATHER ROUNDUP FOR THE FLORIDA KEYS
NATIONAL WEATHER SERVICE KEY WEST FLORIDA
900 PM EST MON JAN 22 2018

...SOUTH FLORIDA AND THE KEYS...

CITY           SKY/WX    TMP DP  RH WIND       PRES   REMARKS
FORT MYERS     CLOUDY    71  66  84 SE3       30.06R
SW REGIONAL AP CLOUDY    72  66  81 SE6       30.07R
NAPLES         MOCLDY    72  65  78 E3        30.07R
MIAMI          CLOUDY    75  69  81 E10       30.08R
WEST KENDALL   FAIR      72  67  84 E8        30.08R
HOMESTEAD      CLOUDY    72  72 100 E6        30.06R
MARATHON       FAIR      73  68  84 E7        30.05R
KEY WEST INTL  FAIR      72  69  90 E9        30.05R

...INTERNATIONAL WEATHER...

CITY           SKY/WX    TMP DP  RH WIND       PRES   REMARKS
NASSAU BAHAMAS PTCLDY    73  70  88 E5        30.09
CANCUN MEXICO  PTCLDY    75  75 100 E2        29.98R
COZUMEL MEXICO PTCLDY    73  72  94 CALM      29.96R

ADJACENT COASTAL WATERS...

STATION/POSITION TIME  SKY/WX   TEMP    WIND        PRES    WAVE
                                AIR SEA DIR/SP/G            HT/PER
                 (UTC)          (F)     (DEG/KT/KT) (MB)    (FT/S)
PULASKI SHOAL LI 0200            71     100/ 10/ 11 1017.2R
SAND KEY         0150            72                 1017.8R
LONG KEY         NOT AVBL
MOLASSES REEF    0200            74 74   60/  9/ 11 1018.0R
FOWEY ROCKS      0200            74 73   80/ 19/ 20 1018.8R
Buoy 42097       0130               72                N/A     3/ 4

$$




USA.gov is the U.S. government's official web portal to all federal, state and local government web resources and services.